Regional Weather Roundup
Issued by NWS Sterling, VA

Home | Current Version | Previous Version | Text Only | Print | Product List | Glossary On
Versions: 1 2 3 4 5 6 7 8 9 10 11 12 13 14 15 16 17 18 19 20 21 22 23 24 25 26 27 28 29 30 31 32 33 34 35 36 37 38 39 40 41 42 43 44 45 46 47 48 49 50
000
ASUS41 KLWX 170611
RWRLWX

REGIONAL WEATHER ROUNDUP
NATIONAL WEATHER SERVICE BALTIMORE MD/WASHINGTON DC
100 AM EST SUN DEC 17 2017

Note: "FAIR" indicates few or no clouds below 12,000 feet
with no significant weather and/or obstructions to visibility.
 TC=TEMPERATURE CELSIUS

 * =Non NWS site. Station does not report precipitation (e.g. rain,
    snow, etc.), thunder, or fog.

DCZ001-MDZ009-015-VAZ040>042-051-053>054-170700-
WASHINGTON METRO

CITY           SKY/WX    TMP DP  RH WIND       PRES   REMARKS
WASHINGTON NAT PTCLDY    35  28  75 CALM      30.22S
DULLES         PTCLDY    26  22  84 CALM      30.20S
ANDREWS AFB    CLEAR     29  22  75 CALM      30.19F
FT BELVOIR     CLEAR     26  22  85 CALM      30.21F
QUANTICO       CLEAR     30  26  85 NW6       30.23S
COLLEGE PARK*  CLEAR     26  24  89 CALM      30.21S
LEESBURG*      CLEAR     28  25  86 CALM      30.21S
MANASSAS*      PTCLDY    20  17  88 CALM      30.21F
GAITHERSBURG*  CLEAR     27  23  85 CALM      30.19F

$$

MDZ006>007-011-014-170700-
BALTIMORE METRO

CITY           SKY/WX    TMP DP  RH WIND       PRES   REMARKS
BWI AIRPORT    CLEAR     27  24  89 W5        30.20S
MD SCIENCE CTR   N/A     36  27  69 MISG      30.21R
MARTIN STATE   CLEAR     28  28 100 CALM      30.22F
ANNAPOLIS      CLEAR     34  28  79 CALM      30.21S
FORT MEADE*    CLEAR     25  23  93 CALM      30.24R

$$

MDZ012-015-019>023-170700-
MARYLAND EASTERN SHORE

CITY           SKY/WX    TMP DP  RH WIND       PRES   REMARKS
OCEAN CITY     CLEAR     37  29  72 W6        30.22F
SALISBURY      PTCLDY    31  29  92 CALM      30.22S
BAY BRIDGE AP* CLEAR     34  27  75 S3        30.21S
CAMBRIDGE*     CLEAR     28  27  93 CALM      30.22F
EASTON*        CLEAR     30  25  84 CALM      30.25F

$$

MDZ017>025-170700-
SOUTHERN MARYLAND

CITY           SKY/WX    TMP DP  RH WIND       PRES   REMARKS
PATUXENT RIVER CLEAR     33  25  72 W6        30.21F
ST INIGOES     CLEAR     39  28  64 SW5       30.21F
LEONARDTOWN*   CLEAR     32  27  80 CALM      30.23S

$$

MDZ003>005-170700-
NORTH CENTRAL MARYLAND

CITY           SKY/WX    TMP DP  RH WIND       PRES   REMARKS
FREDERICK*     CLOUDY    27  27 100 CALM      30.23S
HAGERSTOWN APT CLEAR     35  23  61 S5        30.17S
WESTMINSTER*   CLEAR     34  25  69 SW3       30.17S

$$

MDZ501>502-170700-
WESTERN MARYLAND

CITY           SKY/WX    TMP DP  RH WIND       PRES   REMARKS
OAKLAND*       CLEAR     34  25  69 W15G29    30.07F WCI  24
CUMBERLAND*    CLOUDY    28  28 100 CALM      30.21F

$$

VAZ025>031-170700-
SHENANDOAH VALLEY

CITY           SKY/WX    TMP DP  RH WIND       PRES   REMARKS
WINCHESTER*    CLOUDY    27  21  80 CALM      30.17F
FRONT ROYAL*   FAIR      30  23  74 MISG      30.16F
LURAY*         CLOUDY    28  25  86 CALM      30.18R
NEW MARKET*    CLOUDY    24  21  87 SW6       30.18R
STAUNTON*      CLOUDY    27  21  78 CALM      30.20S
WAYNESBORO*    PTCLDY    40  22  48 W5        30.18S

$$

WVZ021-048>050-054>055-170700-
EASTERN WEST VIRGINIA PANHANDLE

CITY           SKY/WX    TMP DP  RH WIND       PRES   REMARKS
MARTINSBURG    CLOUDY    27  21  78 CALM      30.17F
PETERSBURG*    CLEAR     29  22  74 CALM      30.18R

$$

VAZ036>039-050-170700-
CENTRAL FOOTHILLS

CITY           SKY/WX    TMP DP  RH WIND       PRES   REMARKS
CHARLOTTESVILL CLOUDY    36  25  64 CALM      30.19R
CULPEPER*      FAIR      24  20  82 CALM      30.21R
ORANGE*        PTCLDY    27  21  80 CALM      30.20R
GORDONSVILLE*  PTCLDY    31  25  79 W3        30.19S
WARRENTON*     PTCLDY    21  17  83 CALM      30.19S

$$

VAZ055>057-170700-
NORTH AND CENTRAL PIEDMONT

CITY           SKY/WX    TMP DP  RH WIND       PRES   REMARKS
FREDERICKSBRG* CLEAR     28  25  86 S3        30.21R
STAFFORD*      CLEAR     29  25  87 CALM      30.25R

$$

NCZ024-NYZ072-PAZ021-071-VAZ022-071-170700-
OTHER REGIONAL OBSERVATIONS

CITY           SKY/WX    TMP DP  RH WIND       PRES   REMARKS
NEW YORK CITY  CLOUDY    33  20  58 VRB6      30.23R
PHILADELPHIA   CLOUDY    37  29  72 CALM      30.21S
PITTSBURGH     PTCLDY    38  26  62 SW6       30.14R
ROANOKE        CLOUDY    41  24  51 W13       30.25R
RICHMOND       PTCLDY    32  24  72 S5        30.23R
RALEIGH        PTCLDY    34  24  67 W3        30.26F

$$

ANZ530>537-170700-
MARINE OBSERVATIONS

STATION/POSITION TIME  TEMP    WIND        PRES
                       AIR SEA DIR/SP/G
                 (UTC) (F)     (DEG/KT/KT) (MB)
THOMAS PT LIGHT  0600   39 44  250/  1/  1   N/A
BALT KEY BRIDGE  0548   37     300/  2/  2 1023.0R
COVE POINT       0548   41     270/ 12/ 17 1023.3F
LEWISETTA        0548   39 40  260/  3/  3 1023.1R
SOLOMONS ISLAND  0536   38 44  340/  4/  5 1022.7F
PINEY POINT      0548          300/  5/  5   N/A

$$




USA.gov is the U.S. government's official web portal to all federal, state and local government web resources and services.